Погода в Вильнюсе

Погода в Вильнюсе : погода сейчас, прогноз погоды и архив. Всё, что Вы хотите узнать о погоде в Вильнюсе!

Поиск расширенной информации на нашем сайте:

Другие новости

Новости СМИ2

Главная страница сайта

Новости сайта

03.07.2017

Напоминаем, что на нашем специализированном сайте Метеоцентр.Азия вы можете получить высокодетализированные автоматические прогнозы погоды по пунктам России, СНГ и мира в авиационном формате (включающие направление и скорость ветра, видимость, явления погоды, количество и форму облачности, нижнюю и верхнюю границу облачности).


Погода в Вильнюсе - сегодня

Время (UTC), дата Ветер
(°,м/с) 
Видим.   Явления Облачность Т
(°С)
Тd
(°С)
f(%) Тe
(°С)
Pmin
(гПа)
dP
(гПа)
Po
(мм)
O2
(г/м3)
Тmin Tmax R s Состояние
почвы
18 11.11.18 140 (ЮВ) 7-11{12}  6000 м  дымка  10/10 240 м 
[St]
+4 +2.3 89 +1  1025.5  0.6  755  299    +4.1       
21 11.11.18 140 (ЮВ) 7-12{12}  6000 м  дымка  10/10 210 м 
[St]
+3.1 +1.8 91 1026.1  0.5  755  300           
00 12.11.18 150 (ЮВ) 5-8{13}  6000 м  дымка  10/10 180 м 
[St]
+2.5 +1.5 93 1027  0.9  756  301           
03 12.11.18 140 (ЮВ) 6-10{12}  4900 м  дымка  10/10 150 м 
[St]
+2 +1 93 -1  1027.8  0.7  756  302           
06 12.11.18 160 (Ю) 6-9{12}  6000 м  дымка  10/10 270 м 
[St]
+2.1 +0.6 90 -1  1028.6  0.8  757  302  +1.8        влажная 
09 12.11.18 160 (Ю) 6-9{12}  5000 м  дымка  10/10 210 м 
[St]
+2.6 +1.2 90 1029.4  0.8  757  302           
12 12.11.18 160 (Ю) 7-11{11}  6000 м  дымка  10/10 300 м 
[St]
+3.3 +1.6 89 1028.9  -0.4  757  301           
15 12.11.18 150 (ЮВ) 5-8{11}  3900 м  дымка  10/10 180 м 
[St]
+3.2 +1.9 91 +1  1029.1  0.2  757  301           
18 12.11.18 160 (Ю) 5-9{10}  2800 м  дымка  10/10 120 м 
[St]
+3.2 +2.4 94 +1  1028.9  -0.2  757  301    +3.3       
21 12.11.18 170 (Ю) 6-10{11}  2900 м  слаб. дождь  10/10 150 м 
[Ns]
+3.3 +2.6 95 1028.8  0.1  757  301           
00 13.11.18 160 (Ю) 6-12{13}  3300 м  дымка{дождь}  10/10 150 м 
[St]
+3.6 +2.9 95 +1  1027.8  -1  756  300      0.0     
03 13.11.18 170 (Ю) 7-12{12}  3600 м  дымка  10/10 120 м 
[St]
+3.9 +3.2 95 +1  1027  -0.7  756  300           
06 13.11.18 180 (Ю) 6-11{13}  3600 м  дымка{дождь}  10/10 120 м 
[St]
+4.3 +3.6 95 +2  1026.2  -0.8  755  299  +3.2    0.2    влажная 
09 13.11.18 180 (Ю) 8-12{13}  4200 м  дымка  10/10 150 м 
[St]
+4.6 +3.9 95 +1  1025.2  -1  754  298           
12 13.11.18 170 (Ю) 7-10{13}  4800 м  дымка  10/10 180 м 
[St]
+4.8 +3.8 93 +2  1023.8  -1.3  753  298           
15 13.11.18 180 (Ю) 6-10{12}  4600 м  в посл. час дождь  10/10 180 м 
[St]
+4.7 +3.6 93 +2  1022.6  -1.2  752  297           
18 13.11.18 180 (Ю) 6-10{12}  2700 м  слаб. дождь{морось}  10/10 120 м 
[Ns]
+4.5 +4.1 97 +2  1021.2  -1.4  751  297    +4.8     
21 13.11.18 180 (Ю) 5-8{11}  2700 м  слаб. дождь{морось}  10/10 150 м 
[Ns]
+4.9 +4.5 97 +3  1019.3  -1.8  750  296           
00 14.11.18 190 (Ю) 3-4{08}  4000 м  дождь{морось}  10/10 120 м 
[Ns]
+4.9 +4.6 98 +4  1018.1  -1.2  749  296         
03 14.11.18 250 (З) 1-3{05}  3300 м  слаб. дождь  10/10 120 м 
[Ns]
+5.8 +5.6 99 +7  1017.6  -0.4  749  295           
06 14.11.18 320 (СЗ) 20000 м  слаб. морось{дождь}  9/9 200 м средняя 
[As op]
+7   1017.6    749    +4.5        влажная 
09 14.11.18 320 (СЗ) 3-6{09}  19000 м  в посл. час морось{дождь}  10/10 210 м 
[St]
+6.8 +5.9 94 +6  1020  1.6  751  294           
12 14.11.18 330 (СЗ) 3-6{08}  20000 м  {дождь, морось}  10/10 500 м 
[St]
+7.1 +5.6 90 +6  1021.5  1.5  752  294      0.2     
15 14.11.18 330 (СЗ) 3-5{06}  20000 м  {дождь}  9/9 1500 м 
[Sc]
+6.7 +6 95 +6  1023.6  753  295           
18 14.11.18 340 (С) 2-4{06}  7000 м  дымка{дождь}  8/6 100 м 
[St]
+6.4 +5.9 97 +6  1024.7  1.1  754  296    +7.2  0.2     
Время (UTC), дата Ветер
(°,м/с) 
Видим.   Явления Облачность Т
(°С)
Тd
(°С)
f(%) Тe
(°С)
Pmin
(гПа)
dP
(гПа)
Po
(мм)
O2
(г/м3)
Тmin Tmax R s Состояние
почвы

Для получения пояснительной информации подведите курсор к названию столбца.

ПОГОДА в Вильнюсе - архив

Всё, что Вы хотите узнать о погоде в Вильнюсе - удобно и подробно!

Выберите нужную дату (начиная с 1 января 2015* года) и нажмите кнопку "Найти".
Будут отображены архивные сводки погоды по пункту Вильнюс, начиная с указанной даты.


Отображать данные в формате CSV (для использования в таблицах Excel)


Внимание! Наш архив погоды предназначен исключительно для личного некоммерческого использования в познавательных целях. Если Вам необходимы официальные справки о состоянии погоды (для производственных, юридических, коммерческих и т.п. целей), обращайтесь в органы Росгидромета.

*Примечание: данная дата относится к архиву по метеостанциям СССР (Россия, СНГ, Балтия).
Архив по метеостанциям Зарубежной Европы и Азии (кроме Китая) хранится 10 дней, по другим регионам земного шара (Китай, Африка, Америка, Австралия, Океания) - 1 день.

Вильнюс - район местоположения метеостанции


Название, широта, долгота, высота метеостанции:
Вильнюс 54.6°ш. 25.1°д. 156 м над ур. моря [Литва]

Дополнительная информация

В oтличие oт бoльшинства пoгoдных сайтoв мы публикуем пoдрoбную метеoинфoрмацию в детальнoм прoфессиoнальнoм фoрмате.

Характеристики температуры и влажнoсти вoздуха измеряются на высoте 2 м в тени вдали oт зданий и деревьев.
Скoрoсть ветра измеряется на высoте 10 м (на урoвне рoста челoвека скoрoсть ветра ниже в 1.5-2 раза). Если метеoстанция нахoдится в гoрoде или в лесу, тo скoрoсть ветра занижена на 2-4 м/с пo сравнению с oткрытым местoм. Скoрoсть ветра над акватoриями крупных рек и oзёр, а также на вершинах хoлмoв на 2-5 м/с выше, чем в oбычных услoвиях.
Атмoсфернoе давление в разных тoчках местнoсти мoжет значительнo oтличаться oт давления на метеoстанции, в зависимoсти oт услoвий рельефа (при пoдъёме на 10 м давление пoнижается примернo на 1 мм рт.ст.).